Wetterdaten am Flugplatz MSG Übersee

alte Datensätze gelöscht
92 aktuelle Wetterdateneinträge gefunden

Datum/Uhrzeit   Windrichtung/Grad    Geschw./kmh    Temp./C°    Luftdruck/mbar    Spannung/Volt   
2026-05-10 00:08 O/98 6 14 1018 12,43
2026-05-10 00:18 O/90 6 14 1018 12,48
2026-05-10 00:28 O/87 9 14 1017 12,33
2026-05-10 00:38 O/86 9 14 1017 12,38
2026-05-10 00:48 O/81 9 13 1017 12,40
2026-05-10 00:58 O/78 3 13 1017 12,36
2026-05-10 01:08 SO/119 4 13 1017 12,42
2026-05-10 01:18 O/107 5 13 1017 12,43
2026-05-10 01:28 O/78 7 13 1017 12,32
2026-05-10 01:38 O/70 6 12 1017 12,39
2026-05-10 01:48 N/4 5 12 1017 12,40
2026-05-10 01:58 NW/321 2 12 1017 12,32
2026-05-10 02:09 W/257 2 12 1017 12,36
2026-05-10 02:19 O/86 6 12 1017 12,32
2026-05-10 02:29 O/73 6 11 1017 12,35
2026-05-10 02:39 N/349 4 11 1017 12,32
2026-05-10 02:49 N/338 4 11 1016 12,35
2026-05-10 02:59 NW/335 3 11 1016 12,32
2026-05-10 03:09 NW/335 2 11 1016 12,32
2026-05-10 03:19 NO/62 2 10 1016 12,35
2026-05-10 03:29 SO/121 3 10 1016 12,36
2026-05-10 03:39 SO/135 5 10 1016 12,38
2026-05-10 03:49 SO/127 3 10 1016 12,36
2026-05-10 03:59 SO/125 2 10 1016 12,36
2026-05-10 04:09 SO/126 1 9 1016 12,35
2026-05-10 04:19 SO/126 1 9 1016 12,33
2026-05-10 04:29 SO/126 3 9 1016 12,33
2026-05-10 04:39 SO/126 2 9 1016 12,33
2026-05-10 04:49 SO/126 1 9 1016 12,32
2026-05-10 05:00 SO/126 1 8 1016 12,04
2026-05-10 05:10 SO/126 1 8 1016 12,32
2026-05-10 05:20 SO/126 1 8 1016 12,32
2026-05-10 05:30 SO/126 1 8 1016 12,32
2026-05-10 05:40 SO/126 0 8 1016 12,32
2026-05-10 05:50 SO/126 0 8 1016 12,32
2026-05-10 06:00 SO/126 1 7 1016 12,30
2026-05-10 06:10 SO/126 2 7 1016 12,30
2026-05-10 06:20 SO/126 4 7 1016 12,30
2026-05-10 06:30 SO/126 3 7 1016 12,30
2026-05-10 06:40 SO/126 2 8 1016 12,29
2026-05-10 06:50 O/101 5 8 1016 12,30
2026-05-10 07:00 O/80 3 9 1016 11,98
2026-05-10 07:10 O/76 2 9 1015 12,30
2026-05-10 07:20 O/91 6 10 1015 12,35
2026-05-10 07:31 SO/131 3 11 1016 12,38
2026-05-10 07:41 SO/139 3 12 1016 12,33
2026-05-10 07:51 SO/141 2 13 1016 12,36
2026-05-10 08:01 SO/141 2 14 1016 12,43
2026-05-10 08:11 NO/25 5 15 1015 12,57
2026-05-10 08:21 NO/28 7 16 1015 12,65
2026-05-10 08:31 NO/26 11 17 1015 12,61
2026-05-10 08:41 N/18 12 18 1015 12,65
2026-05-10 08:51 NO/44 10 18 1015 12,65
2026-05-10 09:01 NO/62 11 19 1015 12,65
2026-05-10 09:11 NO/48 6 20 1015 12,65
2026-05-10 09:21 NO/27 7 21 1015 12,64
2026-05-10 09:31 NO/54 7 21 1015 12,64
2026-05-10 09:42 NO/27 9 22 1015 12,30
2026-05-10 09:52 N/349 10 23 1015 12,45
2026-05-10 10:02 N/354 14 23 1015 12,49
2026-05-10 10:12 N/17 11 23 1015 12,48
2026-05-10 10:22 NO/29 10 24 1015 12,49
2026-05-10 10:32 NO/42 10 24 1015 12,52
2026-05-10 10:42 NO/48 10 24 1014 12,51
2026-05-10 10:52 NO/63 12 24 1014 12,55
2026-05-10 11:02 NO/56 8 25 1014 12,57
2026-05-10 11:12 NO/44 8 25 1014 12,20
2026-05-10 11:22 NO/57 9 25 1014 12,35
2026-05-10 11:32 NO/64 10 25 1014 12,38
2026-05-10 11:42 NO/55 10 25 1014 12,43
2026-05-10 11:53 NO/62 18 25 1014 12,43
2026-05-10 12:03 O/79 16 25 1014 12,46
2026-05-10 12:13 O/75 19 25 1014 12,49
2026-05-10 12:23 O/91 12 25 1014 12,49
2026-05-10 12:33 O/89 14 25 1014 12,54
2026-05-10 12:43 O/68 15 25 1014 12,55
2026-05-10 12:53 O/69 16 25 1013 12,33
2026-05-10 13:03 O/88 14 25 1013 12,65
2026-05-10 13:13 NO/66 14 25 1013 12,77
2026-05-10 13:23 NO/62 16 25 1013 12,71
2026-05-10 13:33 NO/60 16 25 1013 12,71
2026-05-10 13:43 NO/65 14 25 1013 12,77
2026-05-10 13:53 O/74 17 26 1013 12,73
2026-05-10 14:03 NO/65 20 26 1012 12,74
2026-05-10 14:13 O/88 14 26 1012 12,77
2026-05-10 14:24 O/79 14 26 1012 12,79
2026-05-10 14:34 O/69 20 26 1012 12,40
2026-05-10 14:44 O/78 15 26 1012 12,57
2026-05-10 14:54 O/74 17 26 1012 12,60
2026-05-10 15:04 O/73 18 26 1012 12,70
2026-05-10 15:14 NO/57 19 26 1012 12,64
2026-05-10 15:24 NO/53 20 26 1011 12,67